Location: Bruderhein
(53.8035°N, 112.9265°W)
Time: 10:03:10
(UTC+00:00)

Envisat - Pass Details

Date: 01 June 2024
Orbit: 762 x 764 km, 98.3° (Epoch: 13 June)

Event Time Altitude Azimuth Distance (km) Brightness Sun altitude
Rises 09:12:02 0° 29° (NNE) 3,240 8.4 -10.9°
Reaches altitude 10° 09:16:04 10° 61° (ENE) 2,307 6.4 -10.7°
Maximum altitude 09:17:54 12° 82° (E) 2,178 5.8 -10.5°
Drops below altitude 10° 09:19:43 10° 104° (ESE) 2,300 5.6 -10.4°
Sets 09:23:42 0° 135° (SE) 3,219 6.0 -10.2°
